Regional Weather Roundup
Issued by NWS Goodland, KS

Home | Current Version | Previous Version | Graphics & Text | Print | Product List | Glossary On
Versions: 1 2 3 4 5 6 7 8 9 10 11 12 13 14 15 16 17 18 19 20 21 22 23 24 25 26 27 28 29 30 31 32 33 34 35 36 37 38 39 40 41 42 43 44 45 46 47 48 49 50
000
ASUS43 KGLD 132008
RWRGLD

GOODLAND FORECAST AREA HOURLY WEATHER ROUNDUP
NATIONAL WEATHER SERVICE GOODLAND KS
100 PM MST WED DEC 13 2017

...OFFICIAL OBSERVATIONS...

CITY           SKY/WX    TMP DP  RH WIND       PRES   REMARKS
GOODLAND KS    SUNNY     55  14  19 N26G43    29.97F
HILL CITY KS   SUNNY     59  16  18 N29G39    29.94F
IMPERIAL NEB   SUNNY     53  15  22 NW25G33   29.99F
MCCOOK NEB     SUNNY     55  16  21 N29G41    29.95F
AKRON CO       SUNNY     50  12  21 N22G36    30.05F
BURLINGTON CO  SUNNY     53  13  20 N21G33    30.02F
LIMON CO       SUNNY     51  10  19 N20       30.06F
$$

...UNOFFICIAL OBSERVATIONS...

CITY           SKY/WX    TMP DP  RH WIND       PRES   REMARKS
COLBY KS       SUNNY     55  23  28 NW21      29.98S
LENORA KS        N/A     56  32  40 N16         N/A
NORTON KS      SUNNY     55   7  14 NW25G33   29.93
SHARON SPRINGS   N/A     56  17  21 N23G31      N/A
TRIBUNE KS     SUNNY     57  16  19 N25       30.02F
TRENTON NEB      N/A     54  32  43 NW13        N/A
YUMA CO        FAIR      50  12  22 NW21G28   30.03F
$$




USA.gov is the U.S. government's official web portal to all federal, state and local government web resources and services.